Вернуться в каталог

SL-14 R/B

АктивенPO
NORAD 16792·ROCKET BODY·🇷🇺 Russia

Запущен Jun 12, 1986 с Plesetsk Cosmodrome

Loading…

Ближайшие Пролёты (ближайшие 24 часа)

TLE

СвежийSource: Space-Track

Эпоха: Sep 14, 2026, 17:28 UTC

1 16792U 86046B   26257.72837663  .00000283  00000-0  29744-4 0  9996
2 16792  82.4781 261.5661 0022148 326.5339  33.4476 14.85723488154470

Отслеживайте SL-14 R/B в реальном времени с AllMySat

Download on the App Store